Starlink 35845

operational
NORAD ID: 66348 Int'l Des: 2025-254 Owner: SPXS Country: US Constellation: starlink
LEOCIRCULAR

About Starlink 35845

Description loading...

Live Position

Loading 3D Globe...

Upcoming Passes

Altitude History

Altitude vs Time

uPlot chart will show altitude changes over time

Two-Line Element Set

1 66348U 25254A 25338.75002315 -.02077728 00000-0 -31113-1 0 9994
2 66348 53.1590 314.8588 0001370 97.7654 134.5744 15.57502744 5630
Epoch: Dec 4, 2025 • Age: 13 hours

Current Status

Altitude 420.3 km
Velocity 7.66 km/s
Sub-Earth Point -51.18°S, 71.94°E
Launch Date Nov 6, 2025
Age 29 days
Type internet

Technical Details

Classification Payload
Mass 575.00 kg
Dry Mass 530.00 kg
Total Mass 575.00 kg
Length 0.30 m
Diameter 4.10 m
Span 29.00 m
Shape Box + pan
Manufacturer SPXS
Bus Type Starlink V2MO
Phase Status In Orbit
Owner/State SPXS/US

Large Constellations

Loading constellations...